owner,sensor,date,latitude,longitude,vertical_datum,sea_water_practical_salinity,qcFlag 
NERRS,ioos:station:NOAA.NERRS:gndbcwq:1,2016-01-02T20:30:00Z,30.3836,-88.4364,0.56,19.9,1111122 
NERRS,ioos:station:NOAA.NERRS:gndbcwq:1,2016-01-03T16:00:00Z,30.3836,-88.4364,0.58,20.9,1111122 
NERRS,ioos:station:NOAA.NERRS:gndbcwq:1,2016-01-03T17:00:00Z,30.3836,-88.4364,0.6,19.5,1111122 
NERRS,ioos:station:NOAA.NERRS:gndbcwq:1,2016-01-03T18:00:00Z,30.3836,-88.4364,0.57,13.8,1111122 
NERRS,ioos:station:NOAA.NERRS:gndbcwq:1,2016-01-03T19:00:00Z,30.3836,-88.4364,0.6,20.2,1111122 
NERRS,ioos:station:NOAA.NERRS:gndbcwq:1,2016-01-03T20:00:00Z,30.3836,-88.4364,0.61,20.8,1111122 
NERRS,ioos:station:NOAA.NERRS:gndbcwq:1,2016-01-03T21:00:00Z,30.3836,-88.4364,0.66,21.6,1111122 
NERRS,ioos:station:NOAA.NERRS:gndbcwq:1,2016-01-03T22:00:00Z,30.3836,-88.4364,0.7,23.0,1111122 
NERRS,ioos:station:NOAA.NERRS:gndbcwq:1,2016-01-03T23:00:00Z,30.3836,-88.4364,0.71,23.3,1111122 
NERRS,ioos:station:NOAA.NERRS:gndbcwq:1,2016-01-03T23:15:00Z,30.3836,-88.4364,0.71,23.2,1111122 
NERRS,ioos:station:NOAA.NERRS:gndbcwq:1,2016-01-04T15:00:00Z,30.3836,-88.4364,0.36,20.2,1111122 
NERRS,ioos:station:NOAA.NERRS:gndbcwq:1,2016-01-04T16:00:00Z,30.3836,-88.4364,0.42,15.0,1111122 
NERRS,ioos:station:NOAA.NERRS:gndbcwq:1,2016-01-04T17:00:00Z,30.3836,-88.4364,0.51,17.0,1111122 
NERRS,ioos:station:NOAA.NERRS:gndbcwq:1,2016-01-04T18:00:00Z,30.3836,-88.4364,0.53,22.7,1111122 
NERRS,ioos:station:NOAA.NERRS:gndbcwq:1,2016-01-04T19:00:00Z,30.3836,-88.4364,0.53,21.9,1111122 
NERRS,ioos:station:NOAA.NERRS:gndbcwq:1,2016-01-04T20:00:00Z,30.3836,-88.4364,0.56,23.2,1111122 
NERRS,ioos:station:NOAA.NERRS:gndbcwq:1,2016-01-04T21:00:00Z,30.3836,-88.4364,0.59,25.3,1111122 
NERRS,ioos:station:NOAA.NERRS:gndbcwq:1,2016-01-04T22:00:00Z,30.3836,-88.4364,0.62,26.2,1111122 
NERRS,ioos:station:NOAA.NERRS:gndbcwq:1,2016-01-04T23:00:00Z,30.3836,-88.4364,0.62,26.2,1111122 
NERRS,ioos:station:NOAA.NERRS:gndbcwq:1,2016-01-05T00:00:00Z,30.3836,-88.4364,0.62,24.9,1111122 
NERRS,ioos:station:NOAA.NERRS:gndbcwq:1,2016-01-05T01:00:00Z,30.3836,-88.4364,0.61,25.4,1111122 
NERRS,ioos:station:NOAA.NERRS:gndbcwq:1,2016-01-05T02:00:00Z,30.3836,-88.4364,0.57,22.4,1111122 
NERRS,ioos:station:NOAA.NERRS:gndbcwq:1,2016-01-05T03:00:00Z,30.3836,-88.4364,0.55,24.2,1111122 
NERRS,ioos:station:NOAA.NERRS:gndbcwq:1,2016-01-05T04:00:00Z,30.3836,-88.4364,0.56,24.7,1111122 
NERRS,ioos:station:NOAA.NERRS:gndbcwq:1,2016-01-05T05:00:00Z,30.3836,-88.4364,0.52,23.2,1111122 
NERRS,ioos:station:NOAA.NERRS:gndbcwq:1,2016-01-05T06:00:00Z,30.3836,-88.4364,0.47,21.7,1111122 
NERRS,ioos:station:NOAA.NERRS:gndbcwq:1,2016-01-05T07:00:00Z,30.3836,-88.4364,0.48,25.3,1111122 
NERRS,ioos:station:NOAA.NERRS:gndbcwq:1,2016-01-05T08:00:00Z,30.3836,-88.4364,0.45,11.7,1111122 
NERRS,ioos:station:NOAA.NERRS:gndbcwq:1,2016-01-05T10:00:00Z,30.3836,-88.4364,0.43,20.2,1111122 
NERRS,ioos:station:NOAA.NERRS:gndbcwq:1,2016-01-05T11:00:00Z,30.3836,-88.4364,0.46,24.8,1111122 
NERRS,ioos:station:NOAA.NERRS:gndbcwq:1,2016-01-05T12:00:00Z,30.3836,-88.4364,0.43,19.5,1111122 
NERRS,ioos:station:NOAA.NERRS:gndbcwq:1,2016-01-05T13:00:00Z,30.3836,-88.4364,0.46,24.7,1111122 
NERRS,ioos:station:NOAA.NERRS:gndbcwq:1,2016-01-05T14:00:00Z,30.3836,-88.4364,0.45,21.2,1111122 
NERRS,ioos:station:NOAA.NERRS:gndbcwq:1,2016-01-05T15:00:00Z,30.3836,-88.4364,0.47,25.1,1111122 
NERRS,ioos:station:NOAA.NERRS:gndbcwq:1,2016-01-05T16:00:00Z,30.3836,-88.4364,0.53,24.1,1111122 
NERRS,ioos:station:NOAA.NERRS:gndbcwq:1,2016-01-06T15:00:00Z,30.3836,-88.4364,0.49,20.1,1111122 
NERRS,ioos:station:NOAA.NERRS:gndbcwq:1,2016-01-06T16:00:00Z,30.3836,-88.4364,0.56,20.9,1111122 
NERRS,ioos:station:NOAA.NERRS:gndbcwq:1,2016-01-06T17:00:00Z,30.3836,-88.4364,0.59,20.4,1111122 
NERRS,ioos:station:NOAA.NERRS:gndbcwq:1,2016-01-06T18:00:00Z,30.3836,-88.4364,0.63,20.0,1111122 
NERRS,ioos:station:NOAA.NERRS:gndbcwq:1,2016-01-06T19:00:00Z,30.3836,-88.4364,0.7,19.3,1111122 
NERRS,ioos:station:NOAA.NERRS:gndbcwq:1,2016-01-06T20:00:00Z,30.3836,-88.4364,0.73,20.2,1111122 
NERRS,ioos:station:NOAA.NERRS:gndbcwq:1,2016-01-06T21:00:00Z,30.3836,-88.4364,0.76,20.8,1111122 
NERRS,ioos:station:NOAA.NERRS:gndbcwq:1,2016-01-06T22:00:00Z,30.3836,-88.4364,0.83,20.5,1111122 
NERRS,ioos:station:NOAA.NERRS:gndbcwq:1,2016-01-06T23:00:00Z,30.3836,-88.4364,0.89,22.1,1111122 
NERRS,ioos:station:NOAA.NERRS:gndbcwq:1,2016-01-07T00:00:00Z,30.3836,-88.4364,0.93,22.9,1111122 
NERRS,ioos:station:NOAA.NERRS:gndbcwq:1,2016-01-07T01:00:00Z,30.3836,-88.4364,0.95,23.7,1111122 
NERRS,ioos:station:NOAA.NERRS:gndbcwq:1,2016-01-07T02:00:00Z,30.3836,-88.4364,0.93,23.0,1111122 
NERRS,ioos:station:NOAA.NERRS:gndbcwq:1,2016-01-07T03:00:00Z,30.3836,-88.4364,0.89,22.5,1111122 
NERRS,ioos:station:NOAA.NERRS:gndbcwq:1,2016-01-07T04:00:00Z,30.3836,-88.4364,0.89,23.3,1111122 
NERRS,ioos:station:NOAA.NERRS:gndbcwq:1,2016-01-07T05:00:00Z,30.3836,-88.4364,0.88,23.2,1111122 
NERRS,ioos:station:NOAA.NERRS:gndbcwq:1,2016-01-07T06:00:00Z,30.3836,-88.4364,0.82,23.3,1111122 
NERRS,ioos:station:NOAA.NERRS:gndbcwq:1,2016-01-07T07:00:00Z,30.3836,-88.4364,0.73,21.4,1111122 
NERRS,ioos:station:NOAA.NERRS:gndbcwq:1,2016-01-07T08:00:00Z,30.3836,-88.4364,0.62,19.7,1111122 
NERRS,ioos:station:NOAA.NERRS:gndbcwq:1,2016-01-07T09:00:00Z,30.3836,-88.4364,0.53,16.5,1111122 
NERRS,ioos:station:NOAA.NERRS:gndbcwq:1,2016-01-07T10:00:00Z,30.3836,-88.4364,0.51,17.2,1111122 
NERRS,ioos:station:NOAA.NERRS:gndbcwq:1,2016-01-07T11:00:00Z,30.3836,-88.4364,0.47,14.6,1111122 
NERRS,ioos:station:NOAA.NERRS:gndbcwq:1,2016-01-07T12:00:00Z,30.3836,-88.4364,0.46,14.5,1111122 
NERRS,ioos:station:NOAA.NERRS:gndbcwq:1,2016-01-07T13:00:00Z,30.3836,-88.4364,0.47,18.6,1111122 
NERRS,ioos:station:NOAA.NERRS:gndbcwq:1,2016-01-07T14:00:00Z,30.3836,-88.4364,0.48,18.5,1111122 
NERRS,ioos:station:NOAA.NERRS:gndbcwq:1,2016-01-07T15:00:00Z,30.3836,-88.4364,0.53,18.9,1111122 
NERRS,ioos:station:NOAA.NERRS:gndbcwq:1,2016-01-07T16:00:00Z,30.3836,-88.4364,0.56,18.0,1111122 
NERRS,ioos:station:NOAA.NERRS:gndbcwq:1,2016-01-07T17:00:00Z,30.3836,-88.4364,0.6,18.8,1111122 
NERRS,ioos:station:NOAA.NERRS:gndbcwq:1,2016-01-07T18:00:00Z,30.3836,-88.4364,0.63,17.9,1111122 
NERRS,ioos:station:NOAA.NERRS:gndbcwq:1,2016-01-07T19:00:00Z,30.3836,-88.4364,0.67,18.6,1111122 
NERRS,ioos:station:NOAA.NERRS:gndbcwq:1,2016-01-07T20:00:00Z,30.3836,-88.4364,0.73,19.0,1111122 
NERRS,ioos:station:NOAA.NERRS:gndbcwq:1,2016-01-07T21:00:00Z,30.3836,-88.4364,0.77,20.7,1111122 
NERRS,ioos:station:NOAA.NERRS:gndbcwq:1,2016-01-07T22:00:00Z,30.3836,-88.4364,0.81,21.5,1111122 
NERRS,ioos:station:NOAA.NERRS:gndbcwq:1,2016-01-07T23:00:00Z,30.3836,-88.4364,0.84,21.7,1111122 
NERRS,ioos:station:NOAA.NERRS:gndbcwq:1,2016-01-08T00:00:00Z,30.3836,-88.4364,0.91,21.5,1111122 
NERRS,ioos:station:NOAA.NERRS:gndbcwq:1,2016-01-08T01:00:00Z,30.3836,-88.4364,0.98,20.7,1111122 
NERRS,ioos:station:NOAA.NERRS:gndbcwq:1,2016-01-08T02:00:00Z,30.3836,-88.4364,1.04,19.9,1111122 
NERRS,ioos:station:NOAA.NERRS:gndbcwq:1,2016-01-08T03:00:00Z,30.3836,-88.4364,1.07,19.4,1111122 
NERRS,ioos:station:NOAA.NERRS:gndbcwq:1,2016-01-08T04:00:00Z,30.3836,-88.4364,1.03,19.5,1111122 
NERRS,ioos:station:NOAA.NERRS:gndbcwq:1,2016-01-08T05:00:00Z,30.3836,-88.4364,0.98,19.9,1111122 
NERRS,ioos:station:NOAA.NERRS:gndbcwq:1,2016-01-08T06:00:00Z,30.3836,-88.4364,0.91,20.3,1111122 
NERRS,ioos:station:NOAA.NERRS:gndbcwq:1,2016-01-08T07:00:00Z,30.3836,-88.4364,0.83,20.6,1111122 
NERRS,ioos:station:NOAA.NERRS:gndbcwq:1,2016-01-08T08:00:00Z,30.3836,-88.4364,0.76,20.6,1111122 
NERRS,ioos:station:NOAA.NERRS:gndbcwq:1,2016-01-08T09:00:00Z,30.3836,-88.4364,0.69,19.5,1111122 
NERRS,ioos:station:NOAA.NERRS:gndbcwq:1,2016-01-08T10:00:00Z,30.3836,-88.4364,0.6,19.7,1111122 
NERRS,ioos:station:NOAA.NERRS:gndbcwq:1,2016-01-08T11:00:00Z,30.3836,-88.4364,0.5,19.3,1111122 
NERRS,ioos:station:NOAA.NERRS:gndbcwq:1,2016-01-08T12:00:00Z,30.3836,-88.4364,0.43,15.2,1111122 
NERRS,ioos:station:NOAA.NERRS:gndbcwq:1,2016-01-08T13:00:00Z,30.3836,-88.4364,0.41,14.0,1111122 
NERRS,ioos:station:NOAA.NERRS:gndbcwq:1,2016-01-08T14:00:00Z,30.3836,-88.4364,0.45,17.1,1111122 
NERRS,ioos:station:NOAA.NERRS:gndbcwq:1,2016-01-08T15:00:00Z,30.3836,-88.4364,0.48,17.6,1111122 
NERRS,ioos:station:NOAA.NERRS:gndbcwq:1,2016-01-08T16:00:00Z,30.3836,-88.4364,0.54,16.4,1111122 
NERRS,ioos:station:NOAA.NERRS:gndbcwq:1,2016-01-08T17:00:00Z,30.3836,-88.4364,0.61,16.4,1111122 
NERRS,ioos:station:NOAA.NERRS:gndbcwq:1,2016-01-08T18:00:00Z,30.3836,-88.4364,0.63,16.4,1111122 
NERRS,ioos:station:NOAA.NERRS:gndbcwq:1,2016-01-08T19:00:00Z,30.3836,-88.4364,0.67,16.9,1111122 
NERRS,ioos:station:NOAA.NERRS:gndbcwq:1,2016-01-08T20:00:00Z,30.3836,-88.4364,0.69,17.7,1111122 
NERRS,ioos:station:NOAA.NERRS:gndbcwq:1,2016-01-08T21:00:00Z,30.3836,-88.4364,0.71,18.4,1111122 
NERRS,ioos:station:NOAA.NERRS:gndbcwq:1,2016-01-08T22:00:00Z,30.3836,-88.4364,0.76,18.8,1111122 
NERRS,ioos:station:NOAA.NERRS:gndbcwq:1,2016-01-08T23:00:00Z,30.3836,-88.4364,0.84,19.4,1111122 
NERRS,ioos:station:NOAA.NERRS:gndbcwq:1,2016-01-09T00:00:00Z,30.3836,-88.4364,0.9,20.0,1111122 
NERRS,ioos:station:NOAA.NERRS:gndbcwq:1,2016-01-09T01:00:00Z,30.3836,-88.4364,0.95,19.6,1111122 
NERRS,ioos:station:NOAA.NERRS:gndbcwq:1,2016-01-09T02:00:00Z,30.3836,-88.4364,1.0,18.4,1111122 
NERRS,ioos:station:NOAA.NERRS:gndbcwq:1,2016-01-09T03:00:00Z,30.3836,-88.4364,1.02,17.4,1111122 
NERRS,ioos:station:NOAA.NERRS:gndbcwq:1,2016-01-09T04:00:00Z,30.3836,-88.4364,1.02,17.2,1111122 
NERRS,ioos:station:NOAA.NERRS:gndbcwq:1,2016-01-09T05:00:00Z,30.3836,-88.4364,0.97,18.4,1111122 
NERRS,ioos:station:NOAA.NERRS:gndbcwq:1,2016-01-09T06:00:00Z,30.3836,-88.4364,0.91,18.5,1111122 
NERRS,ioos:station:NOAA.NERRS:gndbcwq:1,2016-01-09T07:00:00Z,30.3836,-88.4364,0.84,19.1,1111122 
NERRS,ioos:station:NOAA.NERRS:gndbcwq:1,2016-01-09T08:00:00Z,30.3836,-88.4364,0.76,19.2,1111122 
NERRS,ioos:station:NOAA.NERRS:gndbcwq:1,2016-01-09T09:00:00Z,30.3836,-88.4364,0.68,18.9,1111122 
NERRS,ioos:station:NOAA.NERRS:gndbcwq:1,2016-01-09T10:00:00Z,30.3836,-88.4364,0.6,18.6,1111122 
NERRS,ioos:station:NOAA.NERRS:gndbcwq:1,2016-01-09T11:00:00Z,30.3836,-88.4364,0.52,18.1,1111122 
NERRS,ioos:station:NOAA.NERRS:gndbcwq:1,2016-01-09T12:00:00Z,30.3836,-88.4364,0.47,14.7,1111122 
NERRS,ioos:station:NOAA.NERRS:gndbcwq:1,2016-01-09T13:00:00Z,30.3836,-88.4364,0.46,13.9,1111122 
NERRS,ioos:station:NOAA.NERRS:gndbcwq:1,2016-01-09T14:00:00Z,30.3836,-88.4364,0.47,15.6,1111122 
NERRS,ioos:station:NOAA.NERRS:gndbcwq:1,2016-01-09T15:00:00Z,30.3836,-88.4364,0.49,15.7,1111122 
NERRS,ioos:station:NOAA.NERRS:gndbcwq:1,2016-01-09T16:00:00Z,30.3836,-88.4364,0.54,17.9,1111122 
NERRS,ioos:station:NOAA.NERRS:gndbcwq:1,2016-01-09T17:00:00Z,30.3836,-88.4364,0.58,16.3,1111122 
NERRS,ioos:station:NOAA.NERRS:gndbcwq:1,2016-01-09T18:00:00Z,30.3836,-88.4364,0.64,15.9,1111122 
NERRS,ioos:station:NOAA.NERRS:gndbcwq:1,2016-01-09T19:00:00Z,30.3836,-88.4364,0.67,16.5,1111122 
NERRS,ioos:station:NOAA.NERRS:gndbcwq:1,2016-01-09T20:00:00Z,30.3836,-88.4364,0.73,16.9,1111122 
NERRS,ioos:station:NOAA.NERRS:gndbcwq:1,2016-01-09T21:00:00Z,30.3836,-88.4364,0.77,17.7,1111122 
NERRS,ioos:station:NOAA.NERRS:gndbcwq:1,2016-01-09T22:00:00Z,30.3836,-88.4364,0.81,17.5,1111122 
NERRS,ioos:station:NOAA.NERRS:gndbcwq:1,2016-01-09T23:00:00Z,30.3836,-88.4364,0.84,17.2,1111122 
NERRS,ioos:station:NOAA.NERRS:gndbcwq:1,2016-01-10T00:00:00Z,30.3836,-88.4364,0.85,16.9,1111122 
NERRS,ioos:station:NOAA.NERRS:gndbcwq:1,2016-01-10T01:00:00Z,30.3836,-88.4364,0.92,15.9,1111122 
NERRS,ioos:station:NOAA.NERRS:gndbcwq:1,2016-01-10T02:00:00Z,30.3836,-88.4364,1.0,14.9,1111122 
NERRS,ioos:station:NOAA.NERRS:gndbcwq:1,2016-01-10T03:00:00Z,30.3836,-88.4364,1.04,14.3,1111122 
NERRS,ioos:station:NOAA.NERRS:gndbcwq:1,2016-01-10T04:00:00Z,30.3836,-88.4364,0.99,14.3,1111122 
NERRS,ioos:station:NOAA.NERRS:gndbcwq:1,2016-01-10T05:00:00Z,30.3836,-88.4364,0.93,15.2,1111122 
NERRS,ioos:station:NOAA.NERRS:gndbcwq:1,2016-01-10T06:00:00Z,30.3836,-88.4364,0.87,15.9,1111122 
NERRS,ioos:station:NOAA.NERRS:gndbcwq:1,2016-01-10T07:00:00Z,30.3836,-88.4364,0.8,16.4,1111122 
NERRS,ioos:station:NOAA.NERRS:gndbcwq:1,2016-01-10T08:00:00Z,30.3836,-88.4364,0.74,16.5,1111122 
NERRS,ioos:station:NOAA.NERRS:gndbcwq:1,2016-01-10T09:00:00Z,30.3836,-88.4364,0.65,16.4,1111122 
NERRS,ioos:station:NOAA.NERRS:gndbcwq:1,2016-01-10T10:00:00Z,30.3836,-88.4364,0.53,15.8,1111122 
NERRS,ioos:station:NOAA.NERRS:gndbcwq:1,2016-01-10T11:00:00Z,30.3836,-88.4364,0.41,15.4,1111122 
NERRS,ioos:station:NOAA.NERRS:gndbcwq:1,2016-01-10T12:00:00Z,30.3836,-88.4364,0.34,12.8,1111122 
NERRS,ioos:station:NOAA.NERRS:gndbcwq:1,2016-01-10T13:00:00Z,30.3836,-88.4364,0.26,11.0,1111122 
NERRS,ioos:station:NOAA.NERRS:gndbcwq:1,2016-01-10T14:00:00Z,30.3836,-88.4364,0.29,9.4,1111122 
NERRS,ioos:station:NOAA.NERRS:gndbcwq:1,2016-01-10T15:00:00Z,30.3836,-88.4364,0.29,9.6,1111122 
NERRS,ioos:station:NOAA.NERRS:gndbcwq:1,2016-01-10T15:15:00Z,30.3836,-88.4364,0.29,9.3,1111122 
NERRS,ioos:station:NOAA.NERRS:gndbcwq:1,2016-01-10T19:00:00Z,30.3836,-88.4364,0.37,8.5,1111122 
NERRS,ioos:station:NOAA.NERRS:gndbcwq:1,2016-01-10T20:00:00Z,30.3836,-88.4364,0.45,9.9,1111122 
NERRS,ioos:station:NOAA.NERRS:gndbcwq:1,2016-01-10T21:00:00Z,30.3836,-88.4364,0.51,10.7,1111122 
NERRS,ioos:station:NOAA.NERRS:gndbcwq:1,2016-01-10T22:00:00Z,30.3836,-88.4364,0.52,9.6,1111122 
NERRS,ioos:station:NOAA.NERRS:gndbcwq:1,2016-01-10T23:00:00Z,30.3836,-88.4364,0.55,11.1,1111122 
NERRS,ioos:station:NOAA.NERRS:gndbcwq:1,2016-01-11T00:00:00Z,30.3836,-88.4364,0.62,10.9,1111122 
NERRS,ioos:station:NOAA.NERRS:gndbcwq:1,2016-01-11T01:00:00Z,30.3836,-88.4364,0.67,11.7,1111122 
NERRS,ioos:station:NOAA.NERRS:gndbcwq:1,2016-01-11T02:00:00Z,30.3836,-88.4364,0.71,12.8,1111122 
NERRS,ioos:station:NOAA.NERRS:gndbcwq:1,2016-01-11T03:00:00Z,30.3836,-88.4364,0.76,13.0,1111122 
NERRS,ioos:station:NOAA.NERRS:gndbcwq:1,2016-01-11T04:00:00Z,30.3836,-88.4364,0.75,12.8,1111122 
NERRS,ioos:station:NOAA.NERRS:gndbcwq:1,2016-01-11T04:15:00Z,30.3836,-88.4364,0.76,13.6,1111122 
NERRS,ioos:station:NOAA.NERRS:gndbcwq:1,2016-01-11T15:00:00Z,30.3836,-88.4364,0.34,8.4,1111122 
NERRS,ioos:station:NOAA.NERRS:gndbcwq:1,2016-01-11T16:00:00Z,30.3836,-88.4364,0.4,9.3,1111122 
NERRS,ioos:station:NOAA.NERRS:gndbcwq:1,2016-01-11T17:00:00Z,30.3836,-88.4364,0.44,9.4,1111122 
NERRS,ioos:station:NOAA.NERRS:gndbcwq:1,2016-01-11T18:00:00Z,30.3836,-88.4364,0.47,9.4,1111122 
NERRS,ioos:station:NOAA.NERRS:gndbcwq:1,2016-01-11T19:00:00Z,30.3836,-88.4364,0.51,10.1,1111122 
NERRS,ioos:station:NOAA.NERRS:gndbcwq:1,2016-01-11T20:00:00Z,30.3836,-88.4364,0.56,10.1,1111122 
NERRS,ioos:station:NOAA.NERRS:gndbcwq:1,2016-01-11T21:00:00Z,30.3836,-88.4364,0.6,10.7,1111122 
NERRS,ioos:station:NOAA.NERRS:gndbcwq:1,2016-01-11T22:00:00Z,30.3836,-88.4364,0.63,11.5,1111122 
NERRS,ioos:station:NOAA.NERRS:gndbcwq:1,2016-01-11T23:00:00Z,30.3836,-88.4364,0.66,11.8,1111122 
NERRS,ioos:station:NOAA.NERRS:gndbcwq:1,2016-01-12T00:00:00Z,30.3836,-88.4364,0.7,12.9,1111122 
NERRS,ioos:station:NOAA.NERRS:gndbcwq:1,2016-01-12T01:00:00Z,30.3836,-88.4364,0.75,13.9,1111122 
NERRS,ioos:station:NOAA.NERRS:gndbcwq:1,2016-01-12T02:00:00Z,30.3836,-88.4364,0.81,15.8,1111122 
NERRS,ioos:station:NOAA.NERRS:gndbcwq:1,2016-01-12T03:00:00Z,30.3836,-88.4364,0.88,18.6,1111122 
NERRS,ioos:station:NOAA.NERRS:gndbcwq:1,2016-01-12T04:00:00Z,30.3836,-88.4364,0.92,19.8,1111122 
NERRS,ioos:station:NOAA.NERRS:gndbcwq:1,2016-01-12T05:00:00Z,30.3836,-88.4364,0.92,19.9,1111122 
NERRS,ioos:station:NOAA.NERRS:gndbcwq:1,2016-01-12T06:00:00Z,30.3836,-88.4364,0.87,20.0,1111122 
NERRS,ioos:station:NOAA.NERRS:gndbcwq:1,2016-01-12T07:00:00Z,30.3836,-88.4364,0.81,16.2,1111122 
NERRS,ioos:station:NOAA.NERRS:gndbcwq:1,2016-01-12T08:00:00Z,30.3836,-88.4364,0.75,12.5,1111122 
NERRS,ioos:station:NOAA.NERRS:gndbcwq:1,2016-01-12T09:00:00Z,30.3836,-88.4364,0.69,11.6,1111122 
NERRS,ioos:station:NOAA.NERRS:gndbcwq:1,2016-01-12T10:00:00Z,30.3836,-88.4364,0.61,10.7,1111122 
NERRS,ioos:station:NOAA.NERRS:gndbcwq:1,2016-01-12T11:00:00Z,30.3836,-88.4364,0.51,9.9,1111122 
NERRS,ioos:station:NOAA.NERRS:gndbcwq:1,2016-01-12T12:00:00Z,30.3836,-88.4364,0.4,9.8,1111122 
NERRS,ioos:station:NOAA.NERRS:gndbcwq:1,2016-01-12T13:00:00Z,30.3836,-88.4364,0.32,8.7,1111122 
NERRS,ioos:station:NOAA.NERRS:gndbcwq:1,2016-01-12T14:00:00Z,30.3836,-88.4364,0.3,7.7,1111122 
NERRS,ioos:station:NOAA.NERRS:gndbcwq:1,2016-01-12T15:00:00Z,30.3836,-88.4364,0.36,10.2,1111122 
NERRS,ioos:station:NOAA.NERRS:gndbcwq:1,2016-01-12T16:00:00Z,30.3836,-88.4364,0.36,7.7,1111122 
NERRS,ioos:station:NOAA.NERRS:gndbcwq:1,2016-01-12T18:00:00Z,30.3836,-88.4364,0.38,9.7,1111122 
NERRS,ioos:station:NOAA.NERRS:gndbcwq:1,2016-01-12T19:00:00Z,30.3836,-88.4364,0.43,10.7,1111122 
NERRS,ioos:station:NOAA.NERRS:gndbcwq:1,2016-01-12T21:00:00Z,30.3836,-88.4364,0.56,12.3,1111122 
NERRS,ioos:station:NOAA.NERRS:gndbcwq:1,2016-01-12T23:00:00Z,30.3836,-88.4364,0.6,13.1,1111122 
NERRS,ioos:station:NOAA.NERRS:gndbcwq:1,2016-01-13T00:00:00Z,30.3836,-88.4364,0.59,12.2,1111122 
NERRS,ioos:station:NOAA.NERRS:gndbcwq:1,2016-01-13T01:00:00Z,30.3836,-88.4364,0.62,13.7,1111122 
NERRS,ioos:station:NOAA.NERRS:gndbcwq:1,2016-01-13T02:00:00Z,30.3836,-88.4364,0.69,14.2,1111122 
NERRS,ioos:station:NOAA.NERRS:gndbcwq:1,2016-01-13T03:00:00Z,30.3836,-88.4364,0.76,14.6,1111122 
NERRS,ioos:station:NOAA.NERRS:gndbcwq:1,2016-01-13T04:00:00Z,30.3836,-88.4364,0.82,16.5,1111122 
NERRS,ioos:station:NOAA.NERRS:gndbcwq:1,2016-01-13T05:00:00Z,30.3836,-88.4364,0.82,16.6,1111122 
NERRS,ioos:station:NOAA.NERRS:gndbcwq:1,2016-01-13T06:00:00Z,30.3836,-88.4364,0.77,16.1,1111122 
NERRS,ioos:station:NOAA.NERRS:gndbcwq:1,2016-01-13T07:00:00Z,30.3836,-88.4364,0.72,15.3,1111122 
NERRS,ioos:station:NOAA.NERRS:gndbcwq:1,2016-01-13T08:00:00Z,30.3836,-88.4364,0.7,14.7,1111122 
NERRS,ioos:station:NOAA.NERRS:gndbcwq:1,2016-01-13T09:00:00Z,30.3836,-88.4364,0.67,14.0,1111122 
NERRS,ioos:station:NOAA.NERRS:gndbcwq:1,2016-01-13T10:00:00Z,30.3836,-88.4364,0.6,10.2,1111122 
NERRS,ioos:station:NOAA.NERRS:gndbcwq:1,2016-01-13T11:00:00Z,30.3836,-88.4364,0.5,9.4,1111122 
NERRS,ioos:station:NOAA.NERRS:gndbcwq:1,2016-01-13T12:00:00Z,30.3836,-88.4364,0.41,9.0,1111122 
NERRS,ioos:station:NOAA.NERRS:gndbcwq:1,2016-01-13T13:00:00Z,30.3836,-88.4364,0.35,7.7,1111122 
NERRS,ioos:station:NOAA.NERRS:gndbcwq:1,2016-01-13T14:00:00Z,30.3836,-88.4364,0.31,7.3,1111122 
NERRS,ioos:station:NOAA.NERRS:gndbcwq:1,2016-01-13T15:00:00Z,30.3836,-88.4364,0.39,9.7,1111122 
NERRS,ioos:station:NOAA.NERRS:gndbcwq:1,2016-01-13T17:00:00Z,30.3836,-88.4364,0.5,11.5,1111122 
NERRS,ioos:station:NOAA.NERRS:gndbcwq:1,2016-01-13T18:00:00Z,30.3836,-88.4364,0.53,12.9,1111122 
NERRS,ioos:station:NOAA.NERRS:gndbcwq:1,2016-01-13T19:00:00Z,30.3836,-88.4364,0.54,12.4,1111122 
NERRS,ioos:station:NOAA.NERRS:gndbcwq:1,2016-01-13T20:00:00Z,30.3836,-88.4364,0.58,12.5,1111122 
NERRS,ioos:station:NOAA.NERRS:gndbcwq:1,2016-01-13T21:00:00Z,30.3836,-88.4364,0.65,13.1,1111122 
NERRS,ioos:station:NOAA.NERRS:gndbcwq:1,2016-01-13T22:00:00Z,30.3836,-88.4364,0.68,14.1,1111122 
NERRS,ioos:station:NOAA.NERRS:gndbcwq:1,2016-01-13T23:00:00Z,30.3836,-88.4364,0.66,14.3,1111122 
NERRS,ioos:station:NOAA.NERRS:gndbcwq:1,2016-01-14T00:00:00Z,30.3836,-88.4364,0.68,14.5,1111122 
NERRS,ioos:station:NOAA.NERRS:gndbcwq:1,2016-01-14T01:00:00Z,30.3836,-88.4364,0.67,14.1,1111122 
NERRS,ioos:station:NOAA.NERRS:gndbcwq:1,2016-01-14T02:00:00Z,30.3836,-88.4364,0.72,14.4,1111122 
NERRS,ioos:station:NOAA.NERRS:gndbcwq:1,2016-01-14T03:00:00Z,30.3836,-88.4364,0.76,15.3,1111122 
NERRS,ioos:station:NOAA.NERRS:gndbcwq:1,2016-01-14T04:00:00Z,30.3836,-88.4364,0.8,16.1,1111122 
NERRS,ioos:station:NOAA.NERRS:gndbcwq:1,2016-01-14T05:00:00Z,30.3836,-88.4364,0.82,16.7,1111122 
NERRS,ioos:station:NOAA.NERRS:gndbcwq:1,2016-01-14T06:00:00Z,30.3836,-88.4364,0.78,15.6,1111122 
NERRS,ioos:station:NOAA.NERRS:gndbcwq:1,2016-01-14T07:00:00Z,30.3836,-88.4364,0.73,15.1,1111122 
NERRS,ioos:station:NOAA.NERRS:gndbcwq:1,2016-01-14T08:00:00Z,30.3836,-88.4364,0.7,15.3,1111122 
NERRS,ioos:station:NOAA.NERRS:gndbcwq:1,2016-01-14T09:00:00Z,30.3836,-88.4364,0.71,16.0,1111122 
NERRS,ioos:station:NOAA.NERRS:gndbcwq:1,2016-01-14T10:00:00Z,30.3836,-88.4364,0.71,15.3,1111122 
NERRS,ioos:station:NOAA.NERRS:gndbcwq:1,2016-01-14T11:00:00Z,30.3836,-88.4364,0.63,12.1,1111122 
NERRS,ioos:station:NOAA.NERRS:gndbcwq:1,2016-01-14T12:00:00Z,30.3836,-88.4364,0.55,11.0,1111122 
NERRS,ioos:station:NOAA.NERRS:gndbcwq:1,2016-01-14T13:00:00Z,30.3836,-88.4364,0.49,10.3,1111122 
NERRS,ioos:station:NOAA.NERRS:gndbcwq:1,2016-01-14T14:00:00Z,30.3836,-88.4364,0.47,11.0,1111122 
NERRS,ioos:station:NOAA.NERRS:gndbcwq:1,2016-01-14T15:00:00Z,30.3836,-88.4364,0.5,13.6,1111122 
NERRS,ioos:station:NOAA.NERRS:gndbcwq:1,2016-01-14T16:00:00Z,30.3836,-88.4364,0.51,14.0,1111122 
NERRS,ioos:station:NOAA.NERRS:gndbcwq:1,2016-01-14T17:00:00Z,30.3836,-88.4364,0.53,14.8,1111122 
NERRS,ioos:station:NOAA.NERRS:gndbcwq:1,2016-01-14T18:00:00Z,30.3836,-88.4364,0.59,14.8,1111122 
NERRS,ioos:station:NOAA.NERRS:gndbcwq:1,2016-01-14T19:00:00Z,30.3836,-88.4364,0.62,14.8,1111122 
NERRS,ioos:station:NOAA.NERRS:gndbcwq:1,2016-01-14T20:00:00Z,30.3836,-88.4364,0.64,14.6,1111122 
NERRS,ioos:station:NOAA.NERRS:gndbcwq:1,2016-01-14T21:00:00Z,30.3836,-88.4364,0.67,15.2,1111122 
NERRS,ioos:station:NOAA.NERRS:gndbcwq:1,2016-01-14T22:00:00Z,30.3836,-88.4364,0.69,16.0,1111122 
NERRS,ioos:station:NOAA.NERRS:gndbcwq:1,2016-01-14T23:00:00Z,30.3836,-88.4364,0.71,16.3,1111122 
NERRS,ioos:station:NOAA.NERRS:gndbcwq:1,2016-01-15T00:00:00Z,30.3836,-88.4364,0.71,16.7,1111122 
NERRS,ioos:station:NOAA.NERRS:gndbcwq:1,2016-01-15T01:00:00Z,30.3836,-88.4364,0.7,16.7,1111122 
NERRS,ioos:station:NOAA.NERRS:gndbcwq:1,2016-01-15T02:00:00Z,30.3836,-88.4364,0.69,16.1,1111122 
NERRS,ioos:station:NOAA.NERRS:gndbcwq:1,2016-01-15T03:00:00Z,30.3836,-88.4364,0.69,16.8,1111122 
NERRS,ioos:station:NOAA.NERRS:gndbcwq:1,2016-01-15T04:00:00Z,30.3836,-88.4364,0.69,16.8,1111122 
NERRS,ioos:station:NOAA.NERRS:gndbcwq:1,2016-01-15T05:00:00Z,30.3836,-88.4364,0.73,16.4,1111122 
NERRS,ioos:station:NOAA.NERRS:gndbcwq:1,2016-01-15T06:00:00Z,30.3836,-88.4364,0.74,16.6,1111122 
NERRS,ioos:station:NOAA.NERRS:gndbcwq:1,2016-01-15T07:00:00Z,30.3836,-88.4364,0.69,16.7,1111122 
NERRS,ioos:station:NOAA.NERRS:gndbcwq:1,2016-01-15T08:00:00Z,30.3836,-88.4364,0.64,14.2,1111122 
NERRS,ioos:station:NOAA.NERRS:gndbcwq:1,2016-01-15T09:00:00Z,30.3836,-88.4364,0.67,14.8,1111122 
NERRS,ioos:station:NOAA.NERRS:gndbcwq:1,2016-01-15T10:00:00Z,30.3836,-88.4364,0.63,14.7,1111122 
NERRS,ioos:station:NOAA.NERRS:gndbcwq:1,2016-01-15T11:00:00Z,30.3836,-88.4364,0.58,10.8,1111122 
NERRS,ioos:station:NOAA.NERRS:gndbcwq:1,2016-01-15T12:00:00Z,30.3836,-88.4364,0.49,11.8,1111122 
NERRS,ioos:station:NOAA.NERRS:gndbcwq:1,2016-01-15T13:00:00Z,30.3836,-88.4364,0.53,9.9,1111122 
NERRS,ioos:station:NOAA.NERRS:gndbcwq:1,2016-01-15T14:00:00Z,30.3836,-88.4364,0.63,11.4,1111122 
NERRS,ioos:station:NOAA.NERRS:gndbcwq:1,2016-01-15T15:00:00Z,30.3836,-88.4364,0.7,11.9,1111122 
NERRS,ioos:station:NOAA.NERRS:gndbcwq:1,2016-01-15T16:00:00Z,30.3836,-88.4364,0.69,11.4,1111122 
NERRS,ioos:station:NOAA.NERRS:gndbcwq:1,2016-01-15T17:00:00Z,30.3836,-88.4364,0.61,11.2,1111122 
NERRS,ioos:station:NOAA.NERRS:gndbcwq:1,2016-01-15T18:00:00Z,30.3836,-88.4364,0.6,10.3,1111122 
NERRS,ioos:station:NOAA.NERRS:gndbcwq:1,2016-01-15T19:00:00Z,30.3836,-88.4364,0.68,11.7,1111122 
NERRS,ioos:station:NOAA.NERRS:gndbcwq:1,2016-01-15T20:00:00Z,30.3836,-88.4364,0.74,12.9,1111122 
NERRS,ioos:station:NOAA.NERRS:gndbcwq:1,2016-01-15T21:00:00Z,30.3836,-88.4364,0.72,12.3,1111122 
NERRS,ioos:station:NOAA.NERRS:gndbcwq:1,2016-01-15T22:00:00Z,30.3836,-88.4364,0.73,12.9,1111122 
NERRS,ioos:station:NOAA.NERRS:gndbcwq:1,2016-01-15T23:00:00Z,30.3836,-88.4364,0.76,14.0,1111122 
NERRS,ioos:station:NOAA.NERRS:gndbcwq:1,2016-01-16T00:00:00Z,30.3836,-88.4364,0.78,14.3,1111122 
NERRS,ioos:station:NOAA.NERRS:gndbcwq:1,2016-01-16T01:00:00Z,30.3836,-88.4364,0.78,14.4,1111122 